Find Starlink 30277

NORAD ID: 57645 Int'l Des: 2023-122 Owner: SPXS Country: US Constellation: starlink operational
LEOCIRCULAR

現在のビュー

3D地球を読み込み中...

About Starlink 30277

Starlink 30277 (NORAD 57645) is a starlink constellation satellite (v2 mini) launched Aug 17, 2023 by SPXS of US. It operates in LEO, CIRCULAR orbit with a mass of 730.00 kg.

次回通過

Passes for default location (London). Set your location on the main map for personalized predictions.

高度履歴

Loading altitude history...

軌道要素

1 57645U 23122P 26264.49934596 -.00000220 00000-0 15517-5 0 9995
2 57645 43.0041 284.5703 0002228 236.5522 123.5116 15.27579947173825
Epoch: Sep 21, 2026 • Age: 47 hours

現在のステータス

高度 492.2 km
遠地点 / 近地点 N/A
速度 7.62 km/s
衛星直下点 -36.63°S, 14.36°W
打ち上げ日 Aug 17, 2023
運用期間 3.1 years
タイプ internet

技術仕様

分類 Payload
質量 730.00 kg
乾燥質量 700.00 kg
長さ 0.30 m
スパン 29.00 m
形状 ? Box + pan
製造者 SPXS
バスタイプ Starlink V2M
フェーズステータス In Orbit
所有者/国 SPXS/US

Most Searched